TimeCDT,TemperatureF,Dew PointF,Humidity,Sea Level PressureIn,VisibilityMPH,Wind Direction,Wind SpeedMPH,Gust SpeedMPH,PrecipitationIn,Events,Conditions,WindDirDegrees,DateUTC
12:56 AM,66.0,57.9,75,29.75,10.0,SSE,13.8,27.6,N/A,,Clear,150,2013-09-26 05:56:00
1:56 AM,64.9,57.9,78,29.73,10.0,SE,16.1,-,N/A,,Clear,140,2013-09-26 06:56:00
2:56 AM,64.0,57.9,80,29.72,10.0,SSE,15.0,23.0,N/A,,Clear,150,2013-09-26 07:56:00
3:56 AM,63.0,57.0,81,29.71,10.0,SSE,16.1,24.2,N/A,,Clear,150,2013-09-26 08:56:00
4:56 AM,63.0,57.0,81,29.70,10.0,SE,16.1,23.0,N/A,,Clear,140,2013-09-26 09:56:00
5:56 AM,63.0,57.0,81,29.70,10.0,SSE,17.3,21.9,N/A,,Clear,150,2013-09-26 10:56:00
6:56 AM,63.0,57.0,81,29.70,10.0,SSE,18.4,27.6,N/A,,Clear,150,2013-09-26 11:56:00
7:56 AM,64.0,57.0,78,29.71,10.0,SSE,19.6,31.1,N/A,,Partly Cloudy,150,2013-09-26 12:56:00
8:56 AM,66.0,57.9,75,29.72,10.0,SSE,19.6,28.8,N/A,,Clear,160,2013-09-26 13:56:00
9:56 AM,70.0,57.9,65,29.73,10.0,SSE,16.1,31.1,N/A,,Clear,160,2013-09-26 14:56:00
10:56 AM,75.0,57.0,53,29.73,10.0,SSE,24.2,32.2,N/A,,Clear,160,2013-09-26 15:56:00
11:56 AM,78.1,55.9,46,29.71,10.0,South,26.5,36.8,N/A,,Clear,170,2013-09-26 16:56:00
12:56 PM,80.1,55.9,43,29.70,10.0,South,25.3,39.1,N/A,,Clear,180,2013-09-26 17:56:00
1:56 PM,82.0,57.0,42,29.69,10.0,South,20.7,33.4,N/A,,Clear,170,2013-09-26 18:56:00
2:56 PM,82.9,57.0,41,29.69,10.0,South,19.6,29.9,N/A,,Clear,190,2013-09-26 19:56:00
3:56 PM,84.9,57.0,38,29.68,10.0,South,19.6,26.5,N/A,,Clear,190,2013-09-26 20:56:00
4:56 PM,84.9,57.0,38,29.68,10.0,South,21.9,29.9,N/A,,Clear,170,2013-09-26 21:56:00
5:56 PM,84.0,57.0,40,29.68,10.0,South,13.8,-,N/A,,Clear,170,2013-09-26 22:56:00
6:56 PM,82.0,57.0,42,29.69,10.0,SSE,12.7,-,N/A,,Clear,160,2013-09-26 23:56:00
7:56 PM,79.0,57.0,47,29.71,10.0,SSE,12.7,20.7,N/A,,Clear,160,2013-09-27 00:56:00
8:56 PM,78.1,57.0,48,29.74,10.0,SSE,13.8,-,N/A,,Clear,150,2013-09-27 01:56:00
9:56 PM,75.0,57.0,53,29.74,10.0,SSE,17.3,24.2,N/A,,Clear,150,2013-09-27 02:56:00
10:56 PM,73.9,57.0,55,29.75,10.0,SSE,15.0,-,N/A,,Clear,160,2013-09-27 03:56:00
11:56 PM,72.0,57.9,61,29.75,10.0,SSE,15.0,26.5,N/A,,Clear,160,2013-09-27 04:56:00